CAPE
392 870 1229 1404 1442 1315 1444 1492 1589 1717 1924 2160 2262 2291 2310 2339 1957 1892 1865 1776 1690 1672 1286 1240 1364 1110 760 576 593 745 852 932 322 144 98 45 52 200 282 332 277 225 306
428 806 1090 1273 1377 1310 1411 1505 1581 1724 1932 2063 2195 2194 2086 2064 2070 1975 1734 1525 1388 1036 778 687 790 734 426 441 526 608 698 814 775 930 521 0 0 0 5 44 170 229 338
424 780 915 1080 1359 1309 1430 1495 1593 1738 1805 1744 1829 1989 1986 1885 1938 1803 1608 1549 1171 603 359 112 229 477 451 445 584 565 524 595 577 658 503 144 150 170 42 186 176 345 514
543 651 726 1044 1270 1277 1389 1471 1439 1557 1598 1775 1700 1606 1662 1535 1518 1529 1412 1377 1230 561 88 17 36 304 369 438 560 357 208 169 99 18 3 86 247 251 195 148 159 296 425
274 579 746 952 1133 1218 1282 1388 1454 1516 1598 1700 1722 1566 1384 1317 1242 1287 1301 1251 1105 510 102 20 16 68 152 191 208 180 98 59 10 0 0 0 5 153 142 97 94 178 267
237 480 684 785 1020 1156 1227 1243 1213 1113 1087 1339 1563 1628 1406 1194 1157 1159 1140 1163 1142 516 259 43 81 116 137 104 77 41 0 0 0 0 0 0 7 81 106 214 215 167 159
290 384 413 646 927 1134 1134 1005 923 856 885 1071 1282 1412 1480 1269 1136 1170 964 858 1067 701 472 129 75 47 10 1 0 0 0 0 0 0 0 0 0 153 292 242 253 231 211
229 310 392 646 847 992 938 698 561 610 712 808 901 1032 1093 967 1002 1015 947 857 834 812 578 275 70 3 0 0 0 0 0 0 0 0 0 0 0 0 210 253 491 456 211
196 314 410 553 726 725 623 497 473 517 560 593 651 735 665 567 619 815 778 749 649 450 257 173 11 0 0 0 0 0 0 0 0 0 0 0 0 2 61 511 548 322 337
152 120 161 340 329 284 337 453 447 463 476 502 536 495 356 363 488 558 592 641 502 328 126 6 0 0 0 0 0 0 0 0 0 0 0 0 0 139 197 894 838 510 135
49 138 115 323 287 167 184 380 402 428 386 395 427 420 6 67 119 246 305 397 461 294 135 31 0 0 0 0 0 0 0 0 0 0 0 0 0 326 558 947 1029 737 452
0 1 11 44 63 90 369 235 123 223 126 79 79 54 0 0 0 41 92 203 300 224 138 46 2 0 0 0 0 0 0 0 0 0 0 0 0 14 391 1009 1047 910 568
20 45 66 55 31 36 171 43 21 36 13 2 6 0 0 0 0 0 0 0 0 15 0 0 0 0 0 0 0 0 0 0 0 0 0 0 0 25 278 998 1055 1133 821
0 0 73 103 82 82 33 23 2 3 0 0 0 0 0 0 0 0 0 0 0 0 0 0 0 0 0 0 0 0 0 0 0 0 0 0 0 0 247 645 1285 1241 999
0 0 0 11 82 66 44 10 0 0 0 0 0 0 0 0 0 0 0 0 0 0 0 0 0 0 0 0 0 0 0 0 0 0 0 0 0 0 37 449 1308 1463 1447
0 0 0 0 0 32 101 9 0 0 3 1 1 0 0 0 0 0 0 0 0 0 0 0 0 0 0 0 0 0 0 0 0 0 0 0 0 0 0 72 792 1346 1559
0 0 0 0 0 0 0 0 0 0 0 0 0 0 0 0 0 0 5 3 0 0 0 0 0 0 0 0 0 0 0 0 0 0 0 0 0 0 0 0 6 298 793
0 0 0 0 0 1 0 0 0 0 0 0 0 0 0 0 0 0 0 0 0 4 0 6 0 0 0 0 0 0 0 0 0 0 0 0 0 0 0 0 0 0 46
0 0 0 0 0 0 0 0 0 0 0 1 0 0 0 0 0 0 0 0 0 0 0 0 1 0 0 0 0 0 0 0 0 0 0 0 0 0 0 0 0 0 0
0 0 0 0 0 0 0 0 0 0 0 0 0 0 0 0 0 0 0 0 0 2 1 1 0 0 0 3 1 0 0 0 0 0 0 0 0 0 0 0 0 0 0
0 0 0 0 0 0 0 0 0 0 0 0 0 0 0 0 0 0 0 0 0 0 0 1 0 2 4 0 2 3 0 0 0 0 0 0 0 0 0 0 0 0 0
0 0 0 0 0 0 0 0 0 0 0 0 0 0 0 0 0 0 0 0 0 0 0 0 0 3 6 2 10 4 10 0 0 0 0 0 0 0 0 0 0 0 0
0 0 0 0 0 0 0 0 0 0 0 0 0 0 0 0 0 0 0 0 0 0 0 0 0 0 4 2 0 7 7 11 6 0 0 0 0 0 0 0 0 0 0
0 0 0 0 0 0 0 0 0 0 0 0 0 0 0 0 0 0 0 0 0 0 0 0 0 4 2 5 0 1 11 29 28 19 0 0 0 0 0 0 1 0 0
0 0 0 0 0 0 0 0 0 0 0 0 0 0 0 0 0 0 0 0 0 0 0 0 0 0 4 0 21 10 2 12 7 7 8 2 0 0 0 1 0 0 0
0 0 0 0 0 0 0 0 0 0 0 0 0 0 0 0 0 0 0 0 0 0 0 0 0 0 0 0 6 17 13 13 13 14 16 11 11 0 0 0 0 4 0
CIN
-46 -22 -6 -9 -15 -27 -20 -20 -6 0 -1 0 0 0 0 0 0 0 0 0 0 0 -3 -3 0 -3 -18 -20 -17 -3 0 0 -33 -69 -72 -73 -76 -24 -20 -13 -16 -23 -21
-82 -24 -10 -15 -23 -39 -28 -4 -2 0 0 0 0 0 0 0 0 0 0 0 0 0 -10 -12 -5 -5 -28 -15 -7 0 0 -4 -3 0 -5 0 0 -6 -113 -117 -36 -21 -10
-81 -32 -11 -20 -23 -54 -49 -15 0 0 0 0 0 0 0 0 0 0 0 0 -8 -37 -46 -67 -39 -13 -13 -13 0 0 0 0 -2 -2 -5 -70 -43 -51 -174 -44 -50 -20 -6
-71 -53 -27 -29 -24 -54 -54 -23 -2 0 0 0 0 0 0 0 -1 -1 -1 -1 -1 -38 -146 -217 -174 -29 -16 -7 0 -12 -36 -40 -86 -185 -164 -107 -24 -35 -57 -86 -79 -32 -16
-82 -52 -33 -46 -46 -58 -46 -19 -3 0 0 0 0 0 0 0 0 0 -1 -1 0 -41 -148 -248 -258 -180 -105 -77 -62 -56 -81 -126 -47 0 0 0 -102 -96 -105 -132 -131 -91 -63
-99 -57 -49 -63 -48 -59 -58 -29 -9 -10 -6 0 0 0 0 0 0 0 -1 -1 0 -27 -79 -188 -181 -162 -134 -145 -146 -167 -7 0 0 0 0 0 -354 -151 -114 -75 -100 -134 -143
-111 -81 -83 -78 -53 -49 -57 -60 -48 -30 -12 -1 0 0 0 0 0 -1 -1 -2 -1 -3 -28 -105 -163 -187 -260 -83 0 0 0 0 0 0 0 0 0 -133 -77 -86 -91 -120 -123
-176 -116 -89 -57 -42 -52 -65 -87 -99 -77 -42 -17 -3 0 0 -1 0 -1 -16 -11 -2 0 -9 -70 -166 -135 0 0 0 0 0 0 0 0 0 0 0 -48 -120 -106 -54 -67 -122
-219 -104 -70 -54 -37 -49 -76 -100 -101 -87 -65 -50 -21 -3 -4 -14 -14 0 -3 -19 -43 -50 -57 -108 -224 0 0 0 0 0 0 0 0 0 0 0 0 -171 -207 -70 -59 -105 -81
-279 -251 -173 -78 -88 -112 -106 -89 -94 -82 -72 -60 -44 -48 -72 -58 -24 -13 -16 -12 -18 -57 -125 -87 0 0 0 0 0 0 0 0 0 0 0 0 -1 -196 -166 -37 -37 -78 -151
-292 -240 -219 -68 -88 -150 -143 -86 -73 -64 -71 -70 -62 -61 -120 -178 -158 -105 -84 -64 -51 -82 -117 -212 0 0 0 0 0 0 0 0 0 0 0 0 0 -123 -85 -48 -37 -64 -104
0 0 -133 -283 -248 -199 -56 -108 -163 -97 -126 -140 -141 -164 0 0 0 -192 -166 -121 -90 -111 -148 -203 -37 0 0 0 0 0 0 0 0 0 0 0 0 -215 -115 -59 -46 -48 -93
-386 -313 -290 -275 -285 -260 -125 -255 -308 -254 -322 -44 -291 0 0 0 0 0 0 0 -7 -23 0 0 0 0 0 0 0 0 0 0 0 0 0 0 0 -276 -132 -84 -63 -43 -57
0 0 -307 -229 -212 -198 -255 -285 -330 -264 0 0 0 0 0 0 0 0 0 0 0 0 0 0 0 0 0 0 0 0 0 0 0 0 0 0 0 0 -125 -93 -56 -50 -61
0 0 0 -258 -210 -212 -235 -316 0 0 0 0 0 0 0 0 0 0 0 0 0 0 0 0 0 0 0 0 0 0 0 0 0 0 0 0 0 0 -227 -93 -46 -40 -36
0 0 0 0 0 -261 -150 -310 -92 -75 -95 -35 -12 0 0 0 0 0 0 0 0 0 0 0 0 0 0 0 0 0 0 0 0 0 0 0 0 0 0 -163 -68 -35 -27
0 0 0 0 0 0 0 0 0 0 0 0 0 0 0 0 0 0 -105 -99 0 0 0 0 0 0 0 0 0 0 0 0 0 0 0 0 0 0 0 0 -47 -130 -76
0 0 0 0 0 0 0 0 0 0 0 0 0 0 0 0 0 0 0 0 0 -139 -9 -115 0 0 0 0 0 0 0 0 0 0 0 0 0 0 0 0 0 0 -202
0 0 0 0 0 0 0 0 0 0 0 0 0 0 0 0 0 0 0 0 0 0 0 0 0 0 0 0 0 0 0 0 0 0 0 0 0 0 0 0 0 0 0
0 0 0 0 0 0 0 0 0 0 0 0 0 0 0 0 0 0 0 0 0 0 0 0 0 0 0 0 0 0 0 0 0 0 0 0 0 0 0 0 0 0 0
0 0 0 0 0 0 0 0 0 0 0 0 0 0 0 0 0 0 0 0 0 0 0 0 0 0 0 0 0 0 0 0 0 0 0 0 0 0 0 0 0 0 0
0 0 0 0 0 0 0 0 0 0 0 0 0 0 0 0 0 0 0 0 0 0 0 0 0 0 0 -1 0 0 -2 0 0 0 0 0 0 0 0 0 0 0 0
0 0 0 0 0 0 0 0 0 0 0 0 0 0 0 0 0 0 0 0 0 0 0 0 0 0 0 -1 0 0 0 0 0 0 0 0 0 0 0 0 0 0 0
0 0 0 0 0 0 0 0 0 0 0 0 0 0 0 0 0 0 0 0 0 0 0 0 0 0 0 0 -2 -1 -1 0 0 0 0 0 0 0 0 0 -1 0 0
0 0 0 0 0 0 0 0 0 0 0 0 0 0 0 0 0 0 0 0 0 0 0 0 0 0 0 0 0 0 -1 -1 -3 0 0 0 0 0 0 0 0 0 0
0 0 0 0 0 0 0 0 0 0 0 0 0 0 0 0 0 0 0 0 0 0 0 0 0 0 0 0 -4 -1 0 0 0 0 0 0 0 0 0 0 0 0 0
Wind_Speed
8 6 9 9 10 12 11 10 12 13 14 15 15 14 13 13 13 11 10 11 10 11 13 13 12 13 15 15 16 15 15 12 14 13 12 12 13 12 12 12 10 8 12
14 7 9 9 12 13 14 12 11 12 14 14 14 13 12 11 12 11 10 10 11 12 12 11 11 13 14 14 15 13 12 10 9 11 12 12 12 11 10 10 9 7 9
15 8 7 9 10 13 14 13 12 12 13 14 13 13 12 11 10 10 9 9 11 12 13 12 13 13 13 13 12 11 11 10 9 9 9 4 4 9 9 9 8 7 9
14 8 5 10 9 12 14 12 11 12 13 12 12 12 12 12 10 9 10 8 10 12 12 12 13 12 12 11 10 11 10 9 8 8 4 3 3 8 8 8 8 7 7
14 7 6 9 10 12 13 11 10 9 10 10 10 11 11 11 11 10 8 7 8 10 12 13 12 12 11 10 9 8 7 6 6 4 2 2 1 5 8 8 8 8 6
14 6 8 10 9 12 14 13 11 10 9 8 8 9 10 10 9 8 8 6 8 10 11 10 11 11 9 8 7 5 3 3 4 1 2 2 2 5 7 8 7 6 6
11 5 7 10 10 11 13 13 13 11 9 8 8 7 7 8 8 7 7 6 8 8 9 8 8 7 7 7 5 3 1 4 2 3 3 4 4 7 8 8 8 8 8
12 7 5 10 8 9 11 11 11 11 10 8 7 6 6 5 5 5 7 6 6 6 6 5 5 4 4 2 1 1 4 5 4 3 4 4 8 9 10 10 9 8 9
9 8 4 4 6 7 8 9 9 9 8 8 7 6 5 5 5 4 3 4 5 4 2 2 2 1 1 1 1 3 5 7 4 3 5 2 9 11 12 11 10 10 11
6 6 6 4 4 4 4 7 8 7 7 6 5 5 5 4 3 3 4 3 2 1 3 4 3 2 3 3 4 4 5 7 4 4 3 3 10 13 14 14 13 12 12
4 4 3 4 6 4 4 5 6 6 6 5 4 4 2 1 1 0 1 2 2 3 3 4 5 5 5 5 6 6 5 2 4 3 3 7 9 14 16 16 15 14 14
5 4 2 2 2 3 2 3 4 4 3 2 2 2 2 2 2 2 3 3 4 4 5 6 7 7 6 3 3 5 2 4 3 4 4 9 11 14 17 18 16 15 16
4 4 3 2 2 3 2 1 0 1 2 1 2 2 2 1 2 2 2 2 2 4 3 4 4 3 5 4 4 4 4 4 3 4 6 10 12 13 14 14 17 16 16
6 6 5 5 4 3 2 2 1 1 2 2 3 4 3 3 4 4 3 3 3 3 4 4 3 4 6 6 5 6 5 5 3 3 5 11 12 14 13 13 17 18 18
9 8 7 3 4 4 3 1 1 1 1 1 1 2 1 2 2 2 3 3 4 4 4 4 4 4 5 5 5 6 8 8 7 4 4 10 12 13 15 15 17 19 19
8 9 7 9 7 2 2 3 3 2 4 5 7 8 8 4 3 3 3 4 4 3 3 4 4 5 5 4 6 7 9 8 8 8 6 6 11 13 14 16 17 20 21
8 8 9 9 10 10 12 10 8 8 9 8 8 10 11 9 7 6 4 3 4 4 5 4 5 3 5 5 9 8 7 9 8 9 8 7 8 11 14 16 18 19 21
9 11 10 10 10 13 12 9 9 9 9 8 7 8 12 11 11 8 7 7 8 7 3 3 4 4 5 6 7 8 7 7 8 9 9 8 7 7 9 15 18 20 21
10 11 12 12 11 10 11 10 11 11 10 7 8 8 12 12 12 8 7 8 8 7 8 8 6 3 6 6 6 7 7 7 10 9 11 11 10 9 8 12 16 18 21
11 12 12 10 10 9 8 9 9 8 9 8 9 9 13 10 12 9 8 9 8 8 7 8 8 6 7 6 9 9 8 8 8 8 10 10 10 11 10 11 10 10 18
11 12 13 12 10 6 4 5 8 8 7 8 8 11 11 10 11 12 8 9 9 8 9 9 7 9 4 10 6 7 7 7 9 8 8 9 9 10 10 10 8 8 9
8 9 11 11 11 8 4 3 5 5 6 4 6 8 11 12 12 11 10 9 10 7 10 10 10 6 5 9 6 7 5 3 6 10 7 6 9 8 9 11 11 12 11
9 7 9 10 10 9 8 7 4 3 4 5 7 7 9 10 11 11 11 9 9 7 7 8 10 11 7 5 10 6 6 5 12 4 14 7 10 8 9 9 11 12 12
7 6 9 8 10 8 7 8 10 8 8 3 3 3 4 6 7 8 8 7 7 6 9 9 8 6 7 6 6 7 2 6 5 7 8 12 13 14 15 13 12 13 13
6 6 6 8 9 7 7 6 7 9 3 2 3 5 6 5 6 8 7 6 6 5 6 8 8 8 5 5 4 7 6 5 3 7 12 12 13 10 12 9 14 15 16
6 6 6 8 6 6 7 7 8 8 6 6 5 5 4 3 4 8 7 6 5 6 6 5 5 8 7 6 5 7 6 6 10 8 10 13 15 13 13 12 11 11 13
Wind_Direction
164 159 157 149 137 121 106 92 91 92 88 89 91 94 95 100 103 93 84 81 83 87 84 82 87 92 90 93 94 93 93 100 106 107 110 115 114 114 103 96 94 101 117
150 150 155 154 139 126 115 105 96 92 91 90 88 87 91 95 95 95 94 91 93 91 91 86 88 94 97 98 99 99 89 77 93 125 125 118 118 115 115 113 107 114 114
147 144 153 153 140 126 115 111 109 103 98 97 95 97 100 97 94 96 99 94 98 94 92 95 97 102 105 105 100 99 88 77 67 71 85 85 101 124 125 119 120 126 138
142 136 155 148 139 122 112 107 106 108 105 102 100 101 102 102 97 92 87 79 102 98 95 95 100 107 107 101 91 87 83 83 76 78 68 77 129 141 142 144 146 149 141
149 136 158 146 140 123 111 106 98 91 92 96 103 101 98 98 96 91 91 81 95 95 99 103 105 103 99 98 102 104 95 78 62 61 99 142 175 173 168 172 170 170 168
151 143 152 145 142 130 123 119 113 106 97 89 92 104 103 101 100 98 97 93 93 108 102 108 111 108 110 112 125 123 78 51 54 38 212 236 220 229 193 188 184 178 180
149 138 152 146 148 139 133 131 129 126 119 111 100 87 87 103 105 99 95 87 86 96 106 115 113 117 125 142 142 129 345 351 357 305 254 220 225 236 219 211 206 197 201
149 142 143 147 148 141 135 132 129 132 134 130 120 114 105 85 78 99 112 101 89 92 104 114 121 136 132 138 113 4 339 331 335 305 299 226 222 225 233 227 226 227 217
142 135 115 119 137 129 124 124 127 131 133 137 139 135 126 123 119 103 87 110 121 119 132 111 133 142 200 293 306 327 319 313 313 298 295 243 235 233 233 240 235 232 235
103 122 139 106 99 110 123 127 132 138 138 139 141 139 134 128 123 129 141 148 154 186 176 184 209 249 268 282 288 291 301 314 313 303 288 283 242 241 241 243 233 234 234
96 99 88 151 156 145 129 142 137 144 153 156 157 152 115 125 138 185 254 249 224 225 263 283 270 255 257 272 278 289 306 292 289 283 286 280 266 252 251 243 237 231 235
127 142 148 146 157 157 105 125 142 156 156 170 178 164 215 235 234 229 231 248 256 255 265 272 272 277 291 285 282 270 242 254 266 273 269 265 272 275 273 252 240 233 232
134 156 150 164 146 167 136 115 158 180 167 193 218 215 241 254 287 284 275 281 251 247 246 266 274 267 273 272 273 271 268 255 257 261 264 269 277 288 284 256 238 237 236
33 18 162 159 160 155 144 182 212 316 334 320 331 338 341 332 322 302 284 267 249 239 254 246 247 259 262 254 252 274 280 281 269 257 255 260 267 278 284 263 241 240 237
37 13 18 142 162 172 168 170 37 29 359 339 30 331 277 281 286 288 283 295 290 290 258 245 239 253 267 273 271 266 275 270 267 264 262 259 257 264 273 270 254 246 244
32 23 20 38 34 172 145 81 45 23 38 37 49 31 24 355 331 289 278 275 280 265 267 272 281 282 271 245 261 247 255 261 264 269 268 269 254 252 253 257 255 253 251
39 37 38 45 40 66 66 61 57 48 51 43 42 35 32 29 8 346 343 329 318 266 263 252 262 258 268 272 267 275 261 253 254 258 259 258 266 257 251 250 248 247 250
45 50 51 52 45 68 66 64 62 49 49 43 41 33 34 28 23 26 26 17 348 351 315 295 286 277 265 260 269 264 260 263 262 257 258 255 253 258 255 245 245 246 247
44 49 55 49 46 60 74 76 67 64 57 37 37 34 31 29 25 38 28 19 8 9 21 0 347 301 299 297 283 273 266 253 253 256 256 255 250 250 252 251 242 241 244
43 52 55 60 43 53 75 70 75 54 55 44 36 30 32 26 29 25 31 20 19 18 13 1 359 357 316 325 313 291 277 263 257 258 263 264 256 252 252 257 259 252 240
52 50 47 49 43 44 42 73 59 67 45 49 40 33 37 30 29 29 26 21 5 29 10 9 347 352 344 357 301 339 283 242 242 249 256 260 264 261 261 258 254 257 260
59 54 56 54 49 44 35 45 57 68 60 49 50 40 37 36 34 34 26 21 14 15 11 7 12 349 1 0 344 283 316 306 44 324 280 266 263 260 260 263 264 256 256
70 65 65 62 62 58 53 63 66 81 67 51 38 38 27 30 32 30 26 22 17 17 12 3 5 12 355 10 354 18 348 337 328 295 317 330 320 327 309 288 276 268 261
94 88 82 74 71 58 54 76 77 79 76 31 29 13 18 22 26 27 23 17 16 12 14 6 7 358 360 355 1 17 336 298 321 318 345 309 345 327 322 318 309 294 278
111 103 93 84 77 70 72 77 79 77 85 68 36 32 21 14 18 19 17 7 10 9 5 4 1 3 9 333 5 349 342 306 315 309 307 317 310 311 302 326 312 294 283
120 109 104 99 91 81 77 73 81 80 68 58 37 36 14 2 10 18 10 6 356 1 360 354 344 356 354 338 336 3 351 354 318 310 306 308 303 309 310 296 300 312 313